Regional Weather Roundup
Issued by NWS

Home | Current Version | Previous Version | Graphics & Text | Print | Product List | Glossary On
Versions: 1 2 3 4 5 6 7 8 9 10 11 12 13 14 15 16 17 18 19 20 21 22 23 24 25 26 27 28 29 30 31 32 33 34 35 36 37 38 39 40 41 42 43 44 45 46 47 48 49 50
000
ASUS43 KLMK 220110
RWRKY
KENTUCKY REGIONAL WEATHER ROUNDUP
NATIONAL WEATHER SERVICE LOUISVILLE KY
900 PM EDT THU MAY 21 2015

NOTE "FAIR" INDICATES FEW OR NO CLOUDS BELOW 12,000 FEET
WITH NO SIGNIFICANT WEATHER AND/OR OBSTRUCTIONS TO VISIBILITY.

KYZ001>023-026-027-061>063-070>075-220200-
WESTERN AND SOUTH CENTRAL KENTUCKY

CITY           SKY/WX    TMP DP  RH WIND       PRES   REMARKS
PADUCAH        PTCLDY    56  43  61 N5        30.18R
HENDERSON      CLEAR     55  43  62 CALM      30.17R
OWENSBORO      CLEAR     56  45  66 NW5       30.18R
HOPKINSVILLE   CLOUDY    55  46  73 NW3       30.18R
BOWLING GREEN  PTCLDY    55  44  66 NW5       30.17R
GLASGOW        CLOUDY    54  46  74 CALM      30.16R
$$

KYZ024-025-028>034-038-045-046-053-220200-
NORTH CENTRAL KENTUCKY

CITY           SKY/WX    TMP DP  RH WIND       PRES   REMARKS
LOUISVILLE/SDF PTCLDY    56  42  59 NW10      30.13R
LOUISVILLE/LOU CLEAR     56  42  59 NW6       30.14R
FORT KNOX      CLEAR     51  44  77 W5        30.13R
$$

KYZ035>037-039>044-047>052-055>060-089>105-220200-
NORTHEAST KENTUCKY

CITY           SKY/WX    TMP DP  RH WIND       PRES   REMARKS
LEXINGTON      CLOUDY    53  42  66 NW3       30.12R
COVINGTON      CLEAR     53  41  63 W5        30.10R
FRANKFORT      CLEAR     53  41  63 W3        30.12R
$$

KYZ054-064>069-076>088-106>120-220200-
SOUTHEAST KENTUCKY

CITY           SKY/WX    TMP DP  RH WIND       PRES   REMARKS
JACKSON        CLOUDY    50  47  89 W3        30.11R
LONDON         CLOUDY    53  45  74 NW5       30.13R
SOMERSET       CLOUDY    52  45  76 N3        30.15R
MIDDLESBORO    DRIZZLE   52  49  90 NW7       30.13R
MONTICELLO     CLOUDY    53  49  86 CALM      30.17R
$$




USA.gov is the U.S. government's official web portal to all federal, state and local government web resources and services.